STARLINK-1063 (44768 NORAD) Tracking and Keplerian Element Data

This shows tracking and keplerian element data for the satellite.

Feedback or suggestion? Click here.




ElementValue
Catalog44768
NameSTARLINK-1063
Epoch Orbit1105
Epoch Day22.58334491
Epoch Year2020
RAAN193.8268
Inclination53.0025
Eccentricity0.0001482
Argument of Perigee86.5649
Mean Anonmoly357.3546
Mean Motion15.05586185
Decay Rate0.00148869
L11 44768U 19074BH 20022.58334491 .00148869 00000-0 10021-1 0 9994
L22 44768 53.0025 193.8268 0001482 86.5649 357.3546 15.05586185 11050

Live tracking and technical data element details for STARLINK-1063 (NORAD 44768). STARLINK-1063 can be tracked NOW for your location showing map with azimuth and elevation plus other details from your city location.

Track the satellite on the map from your city or location and see movement details for azimuth, elevation, latitude, longitude, range, height, and movement on the map or in text.







IsCatalogInMostPopularTable: catalog: 44768, numindb: 18
Update: records affected: 1



GetName: 44768 STARLINK-1063

Hit Count: updated at: Fri, 24 Jan 2020 10:25:26 GMT